Wind_Speed
9 9 10 12 11 12 12 10 10 11 12 13 13 13 14 14 11 11 13 15 14 14 16 18 18 19 19 20 20 19 19 21 21 21 20 21 21 20 16 17 17 18 18 16 14 11 14 26 35
10 11 12 13 12 13 13 10 11 13 15 13 12 13 15 15 15 12 14 15 16 16 17 17 18 18 18 19 21 21 20 20 22 23 24 23 23 23 23 22 20 14 14 14 13 16 15 25 17
12 12 13 14 14 16 14 13 14 14 17 17 12 13 15 16 16 14 17 17 17 18 19 19 20 19 17 17 18 19 21 21 22 23 24 25 24 24 25 23 21 17 14 11 13 13 16 14 14
14 13 14 15 17 18 16 14 14 16 18 18 18 17 18 18 17 19 18 19 18 19 21 20 21 22 21 19 19 20 20 22 23 24 24 25 25 23 22 22 22 20 19 19 19 18 18 19 17
16 15 15 17 20 21 19 17 17 20 20 21 20 20 21 22 21 22 22 22 20 20 21 22 22 23 23 24 23 22 23 23 24 24 25 26 26 26 24 24 24 24 23 22 22 22 21 20 19
18 18 17 19 22 22 19 18 16 20 23 23 21 23 23 24 24 24 24 24 23 22 22 23 24 25 25 26 27 27 26 25 25 26 27 27 27 28 28 27 26 27 25 25 25 24 23 24 24
18 18 18 19 22 21 20 19 20 22 24 24 23 21 24 27 26 26 26 27 26 25 25 25 25 27 27 28 29 29 29 30 30 28 28 29 29 30 30 31 31 30 28 28 26 26 26 26 26
19 19 19 21 21 20 22 23 25 24 24 26 27 24 24 26 26 26 27 27 28 28 28 29 28 29 30 31 31 32 32 33 33 34 33 31 31 30 30 31 32 33 33 31 30 30 29 29 28
22 20 22 24 23 23 25 26 27 27 28 28 31 30 26 25 26 29 29 31 33 34 34 33 33 32 32 33 34 34 35 35 36 36 36 36 36 35 34 33 32 32 33 35 33 32 31 31 31
26 24 27 28 27 27 28 30 30 29 29 32 34 31 29 29 30 31 33 35 37 38 38 38 38 38 37 36 37 37 37 38 38 39 39 39 38 38 38 38 37 36 35 35 36 36 35 35 36
30 27 33 30 30 32 34 34 32 30 28 36 34 33 33 33 34 35 37 39 40 39 40 41 41 41 42 42 42 41 41 41 41 41 41 42 42 41 41 41 41 41 41 41 40 40 40 41 41
32 31 32 31 31 32 34 33 35 29 32 34 33 34 36 37 38 39 41 42 40 40 40 40 42 42 42 44 45 45 45 44 44 43 44 44 43 44 44 44 44 44 44 44 45 45 45 45 45
33 32 33 33 31 33 34 34 36 29 37 33 35 36 37 38 40 42 43 44 45 44 44 44 44 44 45 45 46 47 48 48 48 47 46 45 45 45 45 45 46 46 47 47 47 47 48 48 48
32 33 34 33 35 36 35 35 35 35 36 37 37 37 39 40 42 43 44 46 46 47 47 47 47 47 48 49 48 49 50 51 51 51 50 48 47 46 46 46 46 46 47 48 49 50 51 51 51
34 34 35 35 38 39 38 36 34 38 38 40 40 40 41 42 45 46 47 48 48 47 47 48 48 49 50 51 51 50 50 51 51 52 51 51 50 49 49 49 48 48 48 48 48 49 50 51 53
38 39 36 36 38 39 40 36 37 38 40 41 41 43 45 46 46 47 47 47 47 48 51 52 53 54 54 55 55 54 52 50 49 49 50 51 51 50 50 49 49 49 50 50 50 50 50 50 52
41 41 39 39 38 39 39 37 38 41 42 41 43 45 45 44 44 44 46 48 51 54 56 58 60 60 60 59 57 56 55 53 50 48 47 47 47 46 45 45 44 44 45 46 47 48 47 47 47
44 43 42 40 38 39 39 38 41 43 42 42 43 44 44 44 46 48 52 54 56 56 58 59 61 62 62 61 58 57 56 55 55 54 52 50 48 46 45 44 43 42 42 41 42 43 43 44 45
45 44 43 41 41 40 40 39 41 42 43 43 43 43 44 46 49 51 53 54 55 56 56 56 55 56 56 57 57 57 56 54 53 53 52 51 50 48 46 44 43 41 40 39 39 40 42 41 42
45 44 42 42 42 42 41 39 42 40 41 40 42 43 45 48 49 49 51 52 53 53 51 50 50 52 53 54 55 55 55 54 52 50 49 48 46 45 43 42 40 38 38 37 37 38 40 42 43
44 43 42 43 42 42 42 42 41 40 39 40 42 44 45 45 47 49 50 50 48 46 44 44 44 44 46 48 50 51 52 51 49 47 45 43 41 41 40 38 37 36 36 37 37 38 40 43 45
44 42 42 43 44 44 42 46 40 38 38 41 43 44 43 44 46 48 48 46 45 47 50 50 50 48 46 44 43 43 45 46 45 43 41 39 38 36 36 36 34 33 33 35 37 38 38 38 38
44 42 42 44 45 45 43 45 39 36 38 41 42 41 42 44 46 46 44 46 52 52 51 47 42 40 42 44 43 39 40 39 39 38 36 36 36 34 34 32 31 32 31 32 32 32 33 32 31
44 44 44 46 46 47 43 41 37 36 38 39 39 39 41 43 43 42 44 49 49 46 43 40 37 34 35 37 39 37 34 33 33 34 34 34 32 30 30 30 29 27 26 24 25 23 23 24 27
44 43 46 47 46 46 40 39 35 36 36 36 36 38 39 40 39 40 45 44 39 37 32 32 33 32 33 34 33 30 31 29 30 30 30 28 29 29 27 26 24 22 23 23 21 19 21 24 27
43 44 46 46 46 42 37 38 35 35 34 34 35 37 37 36 36 39 40 34 29 26 25 26 26 26 30 25 25 25 23 23 24 26 27 27 24 22 22 22 21 22 21 20 21 23 23 24 25
42 43 41 40 41 39 37 34 34 32 32 33 35 34 34 34 34 38 35 30 26 22 21 21 20 17 19 18 17 19 20 21 22 23 21 20 20 20 21 20 20 18 16 17 20 20 21 25 27
41 39 38 40 38 37 35 33 32 31 30 33 34 32 33 33 33 36 31 26 23 19 18 17 19 17 16 16 16 17 18 19 19 19 19 18 19 20 20 19 16 14 13 17 19 21 22 24 24
39 40 41 40 40 39 35 34 33 31 32 33 33 30 30 32 32 33 25 21 18 17 17 18 18 19 17 17 13 14 15 15 16 15 16 17 18 17 18 16 13 11 14 16 17 19 20 22 26
42 42 43 42 41 37 36 34 35 31 32 33 32 29 29 30 31 29 23 21 18 19 19 19 16 15 14 14 15 15 15 15 16 16 16 16 17 17 17 14 13 13 15 17 19 20 23 26 29
Wind_Direction
252 254 255 254 256 258 265 268 273 271 275 271 275 276 274 276 277 275 281 288 292 289 283 287 284 276 272 271 273 267 263 263 262 263 262 261 262 267 268 264 271 277 287 286 267 296 292 263 256
257 259 257 253 254 258 266 268 269 270 272 270 271 275 277 280 281 284 279 279 288 290 291 288 288 289 287 279 273 271 267 262 263 263 263 264 266 266 267 267 268 272 284 284 293 270 281 254 258
253 254 256 257 257 257 266 268 272 277 281 288 283 279 276 274 280 280 278 278 280 282 282 284 285 286 285 285 279 272 270 268 261 260 264 266 269 268 268 274 275 263 267 265 264 262 264 259 273
254 253 255 256 256 260 265 273 280 275 276 281 284 277 273 275 275 276 275 278 276 275 275 275 279 280 282 281 279 277 271 267 268 266 262 263 266 266 267 270 272 270 261 255 252 248 251 256 263
254 252 253 257 260 263 267 263 268 275 273 273 275 277 279 280 277 277 282 283 283 278 276 277 277 275 274 275 277 275 274 272 269 267 266 264 264 267 267 265 267 266 264 264 264 259 254 253 257
258 257 254 253 260 264 268 275 271 272 276 277 279 278 280 276 276 279 283 286 286 282 277 274 274 274 272 271 271 271 271 270 269 270 268 267 267 266 267 268 266 268 268 267 267 266 264 261 259
263 263 259 254 257 265 269 270 273 271 275 280 280 278 275 275 277 280 283 285 285 282 279 275 273 273 272 270 268 268 268 267 266 265 266 267 265 264 264 264 266 267 268 269 270 270 269 264 264
263 265 264 261 259 265 270 273 276 279 281 281 281 277 272 276 280 280 278 277 276 278 278 275 271 269 269 268 268 267 266 265 265 264 263 262 264 264 263 261 261 262 266 266 265 266 267 269 266
258 262 263 264 266 265 268 271 274 278 278 278 277 278 277 275 275 275 274 275 276 276 274 274 275 274 271 269 268 266 265 265 265 264 263 262 261 262 262 262 261 260 260 263 265 264 265 266 268
262 263 263 264 266 266 266 267 270 273 276 276 272 274 276 276 274 272 273 272 272 274 276 277 276 274 273 271 269 268 266 266 264 264 263 262 261 260 260 261 260 259 258 258 260 263 264 265 266
266 265 266 268 267 266 266 268 269 271 272 267 273 279 279 275 273 274 274 275 275 275 274 275 275 274 273 272 270 269 268 267 266 264 263 263 263 262 261 260 260 260 261 260 259 259 261 263 264
267 265 264 266 264 264 265 267 268 267 263 266 275 275 276 277 278 278 277 277 277 276 275 273 272 270 269 269 269 269 269 268 267 266 265 263 262 261 262 262 261 261 261 261 261 261 261 261 262
269 267 267 266 267 266 267 268 269 269 265 269 269 270 273 275 277 278 279 278 276 275 274 274 274 273 270 268 267 267 266 266 266 265 263 263 263 262 261 260 260 260 260 261 262 262 262 263 263
266 268 268 269 269 269 268 265 267 265 269 270 269 271 273 275 276 278 276 275 276 276 275 273 272 271 272 272 270 268 267 266 265 265 265 265 264 264 263 263 262 261 260 260 260 261 261 262 262
264 262 264 266 267 267 266 264 265 267 268 270 273 275 277 278 278 276 274 272 271 271 272 272 272 270 269 269 270 269 268 267 266 265 265 265 265 265 265 266 266 266 266 265 263 262 261 261 261
261 262 263 261 263 267 269 269 267 267 269 272 276 279 278 276 276 275 275 274 273 273 274 274 272 270 269 268 267 268 267 267 266 265 265 265 264 265 266 268 269 269 269 269 268 267 267 266 265
263 264 262 261 261 263 264 266 267 269 272 277 278 277 278 278 276 274 274 274 275 275 274 273 272 270 269 267 267 266 266 265 264 264 263 264 265 266 266 266 266 269 270 270 268 269 270 270 270
261 262 264 262 260 261 263 266 268 271 274 275 275 275 273 273 273 274 276 277 277 276 275 273 271 270 269 268 267 267 266 265 263 262 262 264 265 267 268 268 270 270 271 271 270 270 269 270 271
261 262 263 264 264 264 265 266 268 272 276 276 274 273 274 276 277 279 281 283 283 281 278 274 271 270 269 267 265 263 262 262 261 261 261 261 262 264 266 268 269 268 269 270 269 269 271 271 269
258 260 262 263 264 265 266 268 271 274 273 272 272 274 277 280 283 283 285 286 285 284 282 277 273 269 267 264 264 262 259 259 259 260 259 260 261 262 262 264 263 264 265 264 263 267 271 271 271
255 257 260 262 263 265 269 270 272 273 271 273 275 278 282 283 286 288 290 289 287 284 281 280 278 274 271 268 266 264 261 258 256 256 257 259 259 259 258 257 257 258 259 263 266 272 274 276 279
255 256 258 260 264 267 270 273 272 268 269 274 277 282 284 287 289 293 293 290 288 284 280 277 277 273 268 268 269 268 263 260 255 253 254 255 255 254 252 251 253 257 263 267 271 276 278 279 282
253 253 257 261 264 267 269 271 271 265 271 275 280 284 287 291 295 294 290 288 289 283 279 275 272 270 267 266 267 270 266 259 256 251 250 249 247 247 247 248 253 259 268 274 276 278 280 282 283
251 255 258 261 263 266 269 266 265 269 275 279 281 284 290 294 295 292 292 294 290 285 279 274 266 269 269 269 266 269 262 253 250 244 242 243 242 241 244 247 255 263 270 274 280 282 280 287 286
252 256 260 261 263 267 262 259 266 271 276 278 280 287 292 297 296 297 300 296 295 288 278 269 268 266 264 270 261 257 249 243 243 242 240 238 238 241 246 250 255 261 267 269 279 294 291 289 292
252 254 257 259 261 259 255 261 268 273 276 276 280 286 292 296 296 302 302 297 297 292 280 273 271 270 270 269 253 246 247 244 240 235 233 236 241 240 245 249 255 261 266 272 287 290 294 298 302
249 251 255 254 252 253 258 264 269 274 276 275 279 287 293 296 298 304 299 292 290 285 281 270 268 271 270 264 248 243 240 241 236 237 238 233 234 242 245 249 252 257 267 285 284 292 298 300 302
249 249 245 247 252 256 260 268 272 276 272 274 281 289 291 300 298 304 294 284 285 276 280 274 268 265 261 260 246 243 237 232 235 230 228 232 237 245 249 245 245 255 277 281 289 295 297 299 304
248 249 244 247 252 258 263 268 270 276 270 273 279 288 292 298 298 300 285 275 272 271 278 280 273 269 260 253 242 228 228 222 226 228 231 238 247 246 243 243 250 270 279 285 291 294 299 303 307
244 244 247 252 256 257 261 264 274 277 267 269 278 286 292 297 300 293 274 267 267 275 272 275 268 251 239 230 220 214 217 224 231 236 242 247 249 245 242 250 265 278 283 287 291 297 298 305 308
Height
5800 5801 5801 5802 5806 5803 5804 5806 5806 5805 5806 5808 5807 5808 5807 5806 5806 5810 5808 5807 5808 5808 5808 5808 5809 5808 5809 5809 5808 5809 5809 5809 5809 5809 5810 5809 5808 5808 5809 5808 5807 5807 5807 5807 5807 5806 5805 5808 5811
5798 5798 5799 5799 5801 5800 5801 5803 5803 5803 5803 5805 5806 5806 5806 5804 5804 5805 5805 5806 5806 5806 5807 5806 5806 5806 5805 5805 5806 5806 5806 5806 5806 5807 5807 5807 5806 5806 5805 5806 5804 5803 5803 5804 5804 5805 5806 5810 5809
5796 5796 5798 5797 5797 5798 5799 5800 5800 5801 5800 5801 5803 5804 5804 5803 5802 5803 5802 5803 5804 5804 5804 5804 5804 5803 5803 5803 5803 5803 5803 5804 5804 5804 5804 5804 5804 5803 5803 5802 5802 5802 5802 5801 5804 5805 5806 5807 5807
5794 5795 5796 5796 5795 5796 5797 5799 5799 5798 5799 5799 5799 5801 5801 5800 5799 5799 5798 5799 5800 5800 5800 5800 5800 5800 5799 5800 5800 5800 5800 5800 5801 5801 5801 5801 5801 5801 5801 5800 5800 5800 5801 5801 5802 5803 5804 5806 5805
5791 5792 5793 5792 5791 5792 5794 5795 5796 5796 5796 5796 5797 5797 5797 5796 5795 5794 5794 5794 5795 5796 5795 5795 5795 5796 5795 5795 5796 5797 5797 5797 5797 5797 5798 5798 5798 5797 5798 5798 5798 5798 5798 5798 5799 5799 5800 5801 5802
5788 5789 5790 5790 5788 5789 5791 5792 5793 5792 5792 5792 5794 5793 5794 5792 5791 5791 5790 5790 5790 5790 5790 5791 5790 5790 5790 5790 5791 5791 5792 5792 5793 5793 5793 5793 5793 5793 5793 5794 5794 5795 5795 5794 5794 5795 5797 5797 5797
5784 5785 5787 5787 5786 5786 5787 5787 5788 5788 5788 5789 5790 5790 5789 5788 5788 5787 5786 5786 5785 5785 5785 5785 5785 5785 5785 5784 5785 5785 5785 5786 5787 5788 5788 5788 5788 5789 5789 5790 5790 5790 5790 5790 5790 5790 5791 5793 5793
5781 5782 5783 5782 5783 5784 5783 5783 5783 5784 5785 5785 5784 5785 5786 5784 5784 5783 5782 5781 5780 5780 5779 5779 5778 5779 5779 5779 5778 5778 5779 5779 5779 5780 5781 5782 5782 5783 5783 5784 5785 5785 5785 5785 5786 5786 5787 5787 5788
5775 5778 5778 5777 5779 5780 5778 5778 5778 5779 5780 5780 5778 5778 5781 5781 5780 5778 5778 5776 5775 5774 5773 5773 5773 5772 5772 5772 5772 5772 5772 5772 5773 5773 5773 5774 5774 5775 5776 5777 5778 5778 5779 5779 5780 5781 5781 5781 5782
5771 5773 5772 5772 5773 5774 5773 5772 5773 5773 5774 5773 5771 5773 5774 5774 5773 5772 5770 5769 5769 5768 5768 5768 5767 5766 5765 5764 5764 5765 5765 5765 5765 5765 5766 5766 5767 5767 5768 5769 5770 5771 5772 5772 5773 5773 5774 5775 5775
5766 5768 5764 5767 5767 5767 5767 5768 5768 5769 5770 5764 5766 5768 5767 5767 5766 5765 5763 5761 5760 5761 5760 5760 5759 5758 5757 5756 5756 5756 5756 5756 5756 5757 5757 5758 5758 5759 5759 5760 5761 5762 5763 5764 5765 5766 5767 5768 5768
5759 5759 5758 5759 5759 5760 5760 5761 5761 5763 5762 5761 5762 5761 5760 5759 5758 5757 5755 5754 5753 5752 5751 5750 5749 5748 5747 5746 5746 5746 5746 5746 5747 5748 5748 5749 5749 5750 5750 5751 5752 5753 5754 5755 5755 5757 5758 5759 5760
5751 5752 5751 5751 5752 5752 5753 5753 5752 5757 5752 5755 5754 5753 5752 5751 5750 5748 5748 5746 5745 5743 5742 5740 5739 5738 5737 5736 5736 5736 5736 5736 5736 5737 5737 5738 5738 5739 5740 5741 5742 5743 5744 5745 5746 5747 5748 5749 5750
5744 5744 5744 5744 5744 5744 5745 5744 5744 5745 5745 5744 5745 5745 5744 5743 5741 5740 5738 5736 5736 5734 5732 5730 5727 5726 5726 5725 5725 5725 5725 5725 5725 5726 5726 5727 5728 5728 5729 5730 5731 5733 5733 5734 5736 5737 5738 5739 5740
5735 5736 5735 5736 5735 5735 5736 5737 5737 5735 5735 5734 5735 5735 5735 5734 5732 5730 5728 5727 5725 5723 5721 5719 5717 5715 5713 5713 5713 5713 5713 5713 5714 5715 5716 5716 5717 5717 5718 5719 5720 5721 5722 5723 5724 5726 5726 5727 5728
5727 5727 5729 5728 5727 5727 5728 5730 5728 5727 5726 5727 5727 5726 5725 5722 5721 5719 5717 5716 5715 5713 5710 5708 5706 5705 5703 5701 5701 5701 5702 5703 5703 5703 5704 5705 5705 5705 5706 5708 5708 5709 5709 5710 5711 5713 5714 5715 5716
5717 5718 5719 5718 5718 5718 5719 5720 5718 5717 5718 5719 5717 5716 5714 5713 5711 5709 5706 5704 5702 5699 5697 5695 5692 5690 5689 5688 5688 5689 5690 5691 5692 5693 5693 5693 5695 5696 5697 5697 5698 5698 5699 5699 5700 5701 5701 5702 5704
5706 5707 5708 5709 5710 5708 5709 5711 5708 5708 5710 5709 5707 5706 5704 5703 5701 5699 5696 5693 5689 5686 5682 5680 5677 5675 5674 5675 5675 5676 5677 5678 5679 5681 5682 5683 5684 5686 5687 5687 5688 5688 5689 5689 5689 5690 5691 5691 5692
5697 5698 5698 5699 5699 5699 5700 5701 5699 5699 5699 5698 5696 5695 5693 5691 5690 5687 5683 5679 5675 5672 5669 5666 5663 5661 5660 5659 5660 5661 5662 5663 5665 5667 5670 5671 5673 5674 5675 5676 5677 5678 5678 5679 5680 5680 5680 5681 5681
5685 5687 5689 5688 5688 5689 5689 5691 5689 5690 5688 5688 5686 5684 5682 5680 5678 5675 5671 5667 5662 5658 5655 5652 5650 5648 5647 5646 5645 5646 5647 5649 5652 5655 5657 5659 5661 5663 5664 5665 5666 5667 5668 5669 5669 5669 5670 5669 5669
5675 5676 5678 5678 5678 5678 5679 5680 5680 5680 5679 5677 5675 5674 5672 5669 5666 5663 5658 5654 5650 5647 5644 5641 5639 5637 5635 5634 5633 5633 5634 5637 5640 5643 5646 5648 5649 5651 5653 5654 5656 5657 5658 5659 5659 5659 5658 5658 5658
5665 5667 5667 5667 5668 5668 5669 5666 5672 5671 5670 5667 5665 5663 5661 5658 5655 5650 5645 5641 5638 5635 5632 5629 5627 5625 5624 5623 5623 5623 5623 5625 5628 5631 5634 5637 5639 5641 5643 5645 5647 5649 5650 5650 5650 5649 5647 5646 5645
5655 5656 5657 5658 5657 5657 5660 5655 5663 5662 5660 5657 5655 5653 5651 5648 5644 5640 5635 5631 5626 5621 5618 5616 5615 5613 5613 5613 5613 5613 5613 5614 5617 5621 5624 5627 5630 5632 5635 5638 5640 5641 5641 5640 5640 5638 5638 5636 5635
5644 5646 5647 5647 5647 5646 5651 5648 5653 5653 5651 5648 5646 5644 5641 5638 5634 5630 5625 5619 5613 5608 5605 5604 5604 5604 5603 5603 5603 5603 5604 5605 5608 5612 5615 5618 5622 5624 5628 5630 5632 5633 5632 5632 5631 5630 5629 5627 5626
5634 5636 5636 5636 5637 5638 5640 5639 5645 5643 5641 5639 5637 5635 5632 5629 5625 5620 5614 5607 5602 5597 5595 5595 5596 5595 5595 5594 5594 5595 5596 5598 5601 5604 5608 5611 5615 5618 5621 5622 5624 5624 5624 5624 5624 5621 5620 5619 5618
5623 5625 5626 5625 5627 5630 5630 5630 5635 5634 5632 5631 5629 5627 5624 5620 5616 5611 5605 5599 5595 5592 5590 5589 5588 5588 5587 5586 5586 5588 5590 5593 5595 5599 5602 5606 5609 5612 5614 5615 5616 5617 5617 5616 5614 5614 5613 5610 5608
5613 5614 5617 5616 5617 5618 5621 5624 5626 5625 5623 5622 5621 5619 5616 5612 5608 5603 5598 5593 5589 5587 5585 5584 5583 5583 5582 5581 5582 5583 5586 5589 5592 5595 5598 5600 5603 5605 5607 5608 5609 5609 5609 5608 5607 5606 5604 5602 5600
5602 5607 5606 5606 5609 5611 5613 5614 5616 5615 5614 5614 5613 5611 5608 5604 5599 5595 5590 5588 5585 5583 5581 5579 5580 5580 5579 5579 5579 5581 5583 5586 5588 5591 5594 5596 5598 5600 5601 5602 5602 5602 5601 5601 5599 5598 5596 5594 5591
5594 5596 5597 5599 5601 5602 5605 5607 5607 5607 5606 5605 5605 5604 5600 5596 5592 5588 5585 5583 5581 5580 5578 5577 5576 5576 5575 5576 5577 5579 5581 5583 5586 5589 5590 5592 5593 5594 5596 5596 5595 5594 5594 5593 5592 5591 5589 5587 5583
5584 5586 5587 5589 5593 5595 5596 5600 5598 5599 5597 5597 5598 5596 5593 5588 5585 5582 5579 5579 5577 5576 5575 5574 5573 5572 5573 5573 5575 5577 5579 5582 5584 5585 5587 5588 5589 5590 5590 5589 5589 5588 5588 5586 5585 5583 5582 5578 5575